Weather History for Osijek - Cepin, Croatia

Change the Weather History Date:

Sunday, November 11, 2012

  Actual Average Record
Temperature  
Mean Temperature 51 °F -  
Max Temperature 60 °F - - ()
Min Temperature 42 °F - - ()
Degree Days  
Heating Degree Days 14    
Growing Degree Days 1 (Base 50)    
Moisture  
Dew Point 42 °F    
Average Humidity 76    
Maximum Humidity 93    
Minimum Humidity 51    
Precipitation  
Precipitation 0.00 in - - ()
Sea Level Pressure  
Sea Level Pressure 30.04 in    
Wind  
Wind Speed 7 mph ()    
Max Wind Speed 16 mph    
Max Gust Speed -    
T = Trace of Precipitation, MM = Missing Value Source: Averaged Metar Reports

Daily Weather History Graph

Daily Weather History Graph

Search for Another Location

Airport:

Trip Planner

Search our weather history database for the weather conditions in past years. The results will help you decide how hot, cold, wet, or windy it might be!

Date:

Astronomy

Nov. 11, 2012 Rise Set
Actual Time 6:38 AM CET 4:18 PM CET
Civil Twilight 6:06 AM CET 4:50 PM CET
Nautical Twilight 5:31 AM CET 5:25 PM CET
Astronomical Twilight 4:56 AM CET 6:00 PM CET
Moon 3:24 AM CET (11/11) 2:36 PM CET (11/11)
Length of Visible Light 10h 43m
Length of Day
9h 40m
Waning Crescent, 9% of the Moon is Illuminated
Nov 11
Waning Crescent
Nov 13
New
Nov 20
First Quarter
Nov 28
Full
Dec 6
Last Quarter

Hourly Weather History & Observations

Time (CET) Temp. Windchill Dew Point Humidity Pressure Visibility Wind Dir Wind Speed Gust Speed Precip Events Conditions
12:00 AM 42.8 °F 40.1 °F 41.0 °F 93% 30.04 in - SE 4.6 mph - N/A   Clear
12:30 AM 42.8 °F 41.1 °F 41.0 °F 93% 30.04 in - East 3.5 mph - N/A   Clear
1:00 AM 42.8 °F 40.1 °F 39.2 °F 87% 30.04 in - East 4.6 mph - N/A   Clear
1:30 AM 42.8 °F 38.0 °F 39.2 °F 87% 30.04 in - East 8.1 mph - N/A   Clear
2:00 AM 42.8 °F 38.6 °F 39.2 °F 87% 30.01 in - East 6.9 mph - N/A   Clear
2:30 AM 42.8 °F - 39.2 °F 87% 30.01 in - ESE 2.3 mph - N/A   Clear
3:00 AM 42.8 °F - 39.2 °F 87% 30.01 in - ESE 2.3 mph - N/A   Clear
3:30 AM 42.8 °F 40.1 °F 39.2 °F 87% 30.01 in - East 4.6 mph - N/A   Clear
4:00 AM 42.8 °F 38.6 °F 39.2 °F 87% 30.01 in - East 6.9 mph - N/A   Clear
4:30 AM 42.8 °F - 39.2 °F 87% 30.01 in - East 2.3 mph - N/A   Clear
5:00 AM 42.8 °F 41.1 °F 39.2 °F 87% 30.01 in - ESE 3.5 mph - N/A   Clear
5:30 AM 42.8 °F 40.1 °F 39.2 °F 87% 30.01 in - ESE 4.6 mph - N/A   Clear
6:00 AM 42.8 °F 38.6 °F 41.0 °F 93% 30.01 in - SE 6.9 mph - N/A   Clear
6:30 AM 42.8 °F 39.3 °F 41.0 °F 93% 30.01 in - ESE 5.8 mph - N/A   Clear
7:00 AM 42.8 °F 38.0 °F 41.0 °F 93% 30.04 in - SE 8.1 mph - N/A   Clear
7:30 AM 42.8 °F 37.5 °F 41.0 °F 93% 30.04 in - SE 9.2 mph - N/A   Clear
8:00 AM 44.6 °F 39.7 °F 41.0 °F 87% 30.04 in - SE 9.2 mph - N/A   Clear
8:30 AM 46.4 °F 41.1 °F 41.0 °F 81% 30.04 in - SE 11.5 mph - N/A   Clear
9:00 AM 50.0 °F - 42.8 °F 76% 30.04 in - SE 12.7 mph - N/A   Clear
9:30 AM 51.8 °F - 41.0 °F 67% 30.04 in - SE 15.0 mph - N/A   Clear
10:00 AM 53.6 °F - 41.0 °F 62% 30.04 in - SE 15.0 mph - N/A   Clear
10:30 AM 55.4 °F - 41.0 °F 58% 30.04 in - SE 15.0 mph - N/A   Clear
11:00 AM 55.4 °F - 39.2 °F 54% 30.04 in - SE 16.1 mph - N/A   Clear
11:30 AM 57.2 °F - 39.2 °F 51% 30.04 in - SSE 16.1 mph - N/A   Clear
12:00 PM 57.2 °F - 39.2 °F 51% 30.04 in - SE 12.7 mph - N/A   Clear
12:30 PM 57.2 °F - 39.2 °F 51% 30.04 in - SE 11.5 mph - N/A   Clear
1:00 PM 57.2 °F - 41.0 °F 55% 30.01 in - SE 13.8 mph - N/A   Clear
1:30 PM 59.0 °F - 41.0 °F 51% 30.01 in - SE 12.7 mph - N/A   Clear
2:00 PM 59.0 °F - 41.0 °F 51% 30.01 in - SE 13.8 mph - N/A   Clear
2:30 PM 60.8 °F - 42.8 °F 52% 30.01 in - SE 10.4 mph - N/A   Clear
3:00 PM 59.0 °F - 42.8 °F 55% 30.01 in - SE 9.2 mph - N/A   Clear
3:30 PM 59.0 °F - 42.8 °F 55% 30.01 in - SE 6.9 mph - N/A   Clear
4:00 PM 59.0 °F - 46.4 °F 63% 30.04 in - ESE 6.9 mph - N/A   Clear
4:30 PM 57.2 °F - 48.2 °F 72% 30.04 in - SE 6.9 mph - N/A   Clear
5:00 PM 55.4 °F - 46.4 °F 72% 30.04 in - SE 9.2 mph - N/A   Clear
5:30 PM 53.6 °F - 46.4 °F 77% 30.04 in - SE 8.1 mph - N/A   Clear
6:00 PM 50.0 °F - 44.6 °F 82% 30.04 in - SE 9.2 mph - N/A   Clear
6:30 PM 50.0 °F - 44.6 °F 82% 30.04 in - SE 8.1 mph - N/A   Clear
7:00 PM 50.0 °F - 46.4 °F 87% 30.04 in - SE 5.8 mph - N/A   Clear
7:30 PM 50.0 °F - 46.4 °F 87% 30.04 in - ESE 8.1 mph - N/A   Clear
8:00 PM 51.8 °F - 42.8 °F 71% 30.04 in - SE 8.1 mph - N/A   Clear
8:30 PM 51.8 °F - 42.8 °F 71% 30.06 in - ESE 3.5 mph - N/A   Clear
9:00 PM 50.0 °F - 42.8 °F 76% 30.09 in - ESE 1.2 mph - N/A   Clear
9:30 PM 50.0 °F - 42.8 °F 76% 30.09 in - SSE 8.1 mph - N/A   Clear
10:00 PM 48.2 °F - 44.6 °F 87% 30.09 in - Variable 2.3 mph - N/A   Clear
10:30 PM 48.2 °F - 44.6 °F 87% 30.09 in - Calm Calm - N/A   Clear
11:00 PM 48.2 °F - 44.6 °F 87% 30.12 in - SSW 5.8 mph - N/A   Clear
11:30 PM 48.2 °F - 44.6 °F 87% 30.09 in - South 9.2 mph - N/A   Clear